www.pogodaiklimat.ru
ПОГОДА в Рованиеми
Время
(UTC), дата
01 15.11
02 15.11
03 15.11
04 15.11
05 15.11
06 15.11
07 15.11
08 15.11
09 15.11
10 15.11
11 15.11
12 15.11
13 15.11
14 15.11
15 15.11
16 15.11
17 15.11
18 15.11
19 15.11
20 15.11
21 15.11
22 15.11
23 15.11
00 16.11
01 16.11
02 16.11
03 16.11
04 16.11
05 16.11
06 16.11
07 16.11
08 16.11
09 16.11
10 16.11
11 16.11
12 16.11
13 16.11
14 16.11
15 16.11
16 16.11
17 16.11
18 16.11
19 16.11
20 16.11
21 16.11
22 16.11
23 16.11
00 17.11
01 17.11
02 17.11
03 17.11
04 17.11
05 17.11
06 17.11
07 17.11
08 17.11
09 17.11
10 17.11
11 17.11
12 17.11
13 17.11
14 17.11
15 17.11
16 17.11
17 17.11
18 17.11
19 17.11
20 17.11
21 17.11
22 17.11
23 17.11
00 18.11
01 18.11
02 18.11
03 18.11
04 18.11
05 18.11
06 18.11
07 18.11
08 18.11
09 18.11
10 18.11
11 18.11
12 18.11
13 18.11
14 18.11
15 18.11
16 18.11
17 18.11
18 18.11
19 18.11
20 18.11
21 18.11
22 18.11
23 18.11
00 19.11
01 19.11
02 19.11
03 19.11
04 19.11
05 19.11
06 19.11
07 19.11
08 19.11
09 19.11
10 19.11
11 19.11
12 19.11
13 19.11
14 19.11
15 19.11
16 19.11
17 19.11
18 19.11
19 19.11
20 19.11
21 19.11
22 19.11
23 19.11
00 20.11
01 20.11
02 20.11
03 20.11
04 20.11
05 20.11
06 20.11
07 20.11
08 20.11
09 20.11
10 20.11
11 20.11
12 20.11
13 20.11
14 20.11
15 20.11
16 20.11
17 20.11
18 20.11
19 20.11
20 20.11
21 20.11
22 20.11
23 20.11
00 21.11
01 21.11
02 21.11
03 21.11
04 21.11
05 21.11
06 21.11
07 21.11
08 21.11
09 21.11
10 21.11
11 21.11
12 21.11
13 21.11
14 21.11
15 21.11
16 21.11
17 21.11
18 21.11
19 21.11
20 21.11
21 21.11
22 21.11
23 21.11
Ветер
(напр.,м/с)
Видим. Явления Облачность Т
(С)
Тd
(С)
f
(%)
Тe
(С)
Тes
(С)
Комфортность P
(гПа)
Po
(гПа)
Тmin
(С)
Tmax
(С)
R
(мм)
R24
(мм)
S
(см)
З 2-4
{4}
30 км слаб. ливневой снег 10/10 200 м
[]
-2.3 -2.5 99 -7 -7 холодно 1010.8 1000.4
З 2-3
{4}
35 км в посл. час снег 10/0 600 м
[]
-2.3 -2.4 99 -7 -7 холодно 1011.8 1001.3
З 3-4
{4}
11 км переохл. дождь (гололёд) 10/0 300 м
[]
-1.9 -2.1 99 -7 -7 холодно 1012.8 1002.3
З 3-5
{5}
50 км в посл. час снег 9/9 300 м
[]
-1.8 -2.2 97 -7 -7 холодно 1013.7 1003.3
З 4-7
{7}
7000 м снежные зёрна 10/10 100 м
[]
-2.9 -3.2 98 -9 -9 очень
холодно
1015.3 1004.8
З 4-6
{6}
50 км в посл. час снег {ливн. осадки} 10/10 100 м
[]
-3.5 -3.9 97 -10 -10 очень
холодно
1016.5 1006.0 -3.5 -0.9
ЮЗ 3-5
{7}
40 км слаб. ливневой снег 10/10 50 м
[]
-4.1 -4.4 98 -10 -10 очень
холодно
1017.4 1006.9
ЮЗ 3-4
{6}
3000 м слаб. ливневой снег 10/10 50 м
[]
-4.9 -5.1 98 -11 -11 очень
холодно
1018.7 1008.1
ЮЗ 3-4
{5}
5000 м слаб. ливневой снег 10/0 50 м
[]
-4.8 -5.0 98 -10 -10 очень
холодно
1019.8 1009.2
ЮЗ 4-5
{5}
9000 м слаб. ливневой снег 10/0 50 м
[]
-4.9 -5.1 98 -12 -12 очень
холодно
1020.6 1010.0
ЮЗ 3-4
{4}
22 км 9/9 <50 м
[]
-4.6 -4.9 98 -10 -10 очень
холодно
1021.2 1010.6
ЮЗ 2-3
{4}
50 км {ливн. осадки, снег} ясно -5.1 -5.7 96 -10 -10 очень
холодно
1021.7 1011.1
Ю 1-2
{2}
40 км ясно -6.7 -7.1 97 -9 -9 очень
холодно
1022.0 1011.3
ЮВ 1-2
{2}
50 км ясно -7.9 -8.4 96 -10 -10 очень
холодно
1022.5 1011.7
ЮВ 1-1
{2}
50 км 10/10 100 м
[]
-6.3 -6.7 97 -9 -9 очень
холодно
1022.7 1011.9
ЮВ 1-2
{2}
40 км 10/10 100 м
[]
-6.3 -6.7 97 -9 -9 очень
холодно
1022.8 1012.1
В 1-1
{2}
24 км 10/0 50 м
[]
-5.1 -5.6 96 -8 -8 очень
холодно
1022.8 1012.1
З 3-4
{4}
3100 м дымка 10/10 <50 м
[]
-4.2 -4.4 99 -10 -10 очень
холодно
1023.1 1012.4 -8.3 -3.6
ЮЗ 2-3
{4}
12 км 10/0 50 м
[]
-3.2 -3.3 99 -8 -8 очень
холодно
1023.1 1012.5
ЮЗ 4-7
{7}
28 км 9/9 50 м
[]
-2.3 -2.4 99 -9 -9 очень
холодно
1023.5 1012.9
ЮЗ 4-6
{7}
30 км 9/0 50 м
[]
-2.2 -2.3 99 -8 -8 очень
холодно
1023.6 1013.0
ЮЗ 2-2
{5}
17 км 9/0 50 м
[]
-2.2 -2.4 99 -6 -6 холодно 1023.7 1013.1
ЮЗ 2-3
{3}
17 км 9/9 50 м
[]
-1.9 -2.0 99 -6 -6 холодно 1023.7 1013.2
ЮЗ 2-3
{3}
12 км 9/9 50 м
[]
-1.8 -2.0 99 -6 -6 холодно 1023.6 1013.0
ЮЗ 2-4
{4}
27 км 9/9 50 м
[]
-1.1 -1.3 99 -5 -5 холодно 1023.5 1013.0
ЮЗ 4-5
{6}
40 км 9/9 100 м
[]
-0.9 -1.3 97 -7 -7 холодно 1023.5 1013.0
ЮЗ 3-4
{5}
30 км 9/9 100 м
[]
-1.0 -1.3 98 -6 -6 холодно 1023.8 1013.2
ЮЗ 3-5
{6}
35 км 9/9 100 м
[]
-0.9 -1.2 98 -6 -6 холодно 1023.7 1013.2
ЮЗ 1-2
{5}
26 км 9/9 100 м
[]
-0.8 -1.1 98 -3 -3 прохладно 1023.8 1013.3
ЮЗ 3-5
{5}
22 км 9/9 100 м
[]
-0.5 -1.1 96 -5 -5 холодно 1024.0 1013.5 -4.2 -0.5
Ю 2-4
{6}
30 км 9/9 200 м
[]
-0.5 -1.3 94 -4 -4 прохладно 1024.2 1013.7
Ю 2-3
{4}
50 км 9/9 200 м
[]
-0.5 -1.2 95 -4 -4 прохладно 1024.5 1014.0
Ю 2-3
{3}
50 км 9/9 300 м
[]
-0.2 -1.2 93 -4 -4 прохладно 1024.6 1014.1
ЮВ 2-2
{2}
45 км 9/0 300 м
[]
-0.1 -1.1 93 -4 -4 прохладно 1024.5 1014.0
Ю 1-3
{4}
45 км 9/9 300 м
[]
0.0 -1.3 91 -2 -2 по сезону 1024.6 1014.1
Ю 2-4
{4}
50 км 9/9 200 м
[]
-0.1 -1.5 90 -4 -4 прохладно 1024.5 1014.0
Ю 2-4
{4}
45 км 9/9 200 м
[]
-0.3 -1.8 90 -4 -4 прохладно 1024.5 1014.0
Ю 2-3
{5}
26 км 9/0 300 м
[]
-0.6 -2.0 90 -4 -4 прохладно 1024.6 1014.1
ЮВ 2-4
{4}
13 км переохл. дождь (гололёд) {снег} 9/9 200 м
[]
-0.9 -2.1 92 -5 -5 холодно 1024.9 1014.3
ЮВ 1-2
{4}
22 км слаб. снег 9/0 300 м
[]
-1.2 -1.9 95 -4 -4 прохладно 1025.1 1014.6
ЮВ 1-2
{3}
12 км слаб. ливневой дождь 9/9 300 м
[]
-1.3 -1.7 97 -4 -4 прохладно 1025.2 1014.6
ЮВ 1-2
{3}
5000 м ливневой дождь {снег} 9/9 300 м
[]
-1.4 -1.9 96 -4 -4 прохладно 1025.2 1014.7 -1.4 +0.1
ЮВ 1-2
{4}
45 км в посл. час снег 9/0 300 м
[]
-1.2 -2.5 91 -3 -3 прохладно 1025.1 1014.5
ЮВ 2-3
{3}
15 км слаб. снег 9/9 300 м
[]
-1.5 -2.4 94 -6 -6 холодно 1024.9 1014.4
ЮВ 2-2
{3}
9000 м ливневой дождь {снег} 9/9 300 м
[]
-1.5 -2.4 94 -6 -6 холодно 1024.9 1014.3
ЮВ 2-4
{4}
50 км 9/0 300 м
[]
-1.3 -2.9 89 -5 -5 холодно 1024.7 1014.2
В 1-3
{5}
22 км слаб. ливневой снег 9/9 300 м
[]
-1.4 -2.9 90 -4 -4 прохладно 1024.5 1014.0
ЮВ 2-3
{4}
10 км слаб. ливневой дождь 9/9 300 м
[]
-1.8 -2.8 93 -6 -6 холодно 1024.5 1014.0
В 2-3
{4}
16 км ливневой дождь 10/10 300 м
[]
-1.9 -2.9 93 -6 -6 холодно 1024.1 1013.5
В 2-4
{5}
30 км в посл. час осадки 10/0 300 м
[]
-2.0 -3.2 91 -6 -6 холодно 1023.9 1013.3
В 2-4
{5}
50 км {ливн. осадки, снег} 10/10 300 м
[]
-2.0 -3.5 89 -6 -6 холодно 1023.7 1013.1
В 2-5
{5}
45 км 10/10 300 м
[]
-2.1 -3.5 90 -6 -6 холодно 1023.1 1012.5
В 2-4
{5}
50 км 10/0 300 м
[]
-2.3 -3.7 90 -6 -6 холодно 1022.5 1012.0
В 3-6
{6}
22 км слаб. ливневой снег 10/0 300 м
[]
-2.5 -3.5 93 -8 -8 очень
холодно
1021.8 1011.2 -2.5 -1.2
В 2-5
{7}
50 км в посл. час снег 10/10 200 м
[]
-2.4 -3.5 92 -7 -7 холодно 1021.7 1011.2
В 2-5
{7}
45 км 10/0 200 м
[]
-2.4 -3.4 93 -7 -7 холодно 1022.2 1011.6
В 2-4
{5}
45 км {ливн. осадки, туман} 10/0 200 м
[]
-2.4 -3.5 92 -7 -7 холодно 1021.9 1011.3
В 3-6
{7}
45 км осадки 10/0 200 м
[]
-2.4 -3.5 92 -8 -8 очень
холодно
1021.6 1011.1
В 2-4
{6}
45 км в посл. час осадки 10/0 200 м
[]
-2.4 -3.5 92 -7 -7 холодно 1021.0 1010.5
В 2-5
{6}
45 км слаб. снег 10/0 200 м
[]
-2.5 -3.5 93 -7 -7 холодно 1020.7 1010.2
В 2-3
{6}
50 км в посл. час зёрна 10/0 200 м
[]
-2.6 -3.4 94 -7 -7 холодно 1020.4 1009.8
В 2-7
{7}
50 км 10/0 200 м
[]
-2.7 -3.7 93 -7 -7 холодно 1020.5 1010.0
В 3-6
{6}
13 км снежные зёрна {ливн. осадки} 10/0 200 м
[]
-3.0 -3.9 93 -8 -8 очень
холодно
1020.1 1009.6
СВ 3-6
{7}
50 км в посл. час снег 10/10 200 м
[]
-3.1 -4.1 93 -8 -8 очень
холодно
1020.2 1009.6
В 2-4
{5}
50 км 10/4 300 м
[]
-3.4 -4.5 92 -8 -8 очень
холодно
1020.1 1009.5
СВ 2-4
{5}
50 км {ливн. осадки, снег} 10/10 200 м
[]
-3.5 -4.5 93 -8 -8 очень
холодно
1020.1 1009.5 -3.5 -2.3
СВ 3-5
{5}
35 км слаб. снег 10/10 200 м
[]
-3.6 -4.6 93 -9 -9 очень
холодно
1020.2 1009.6
СВ 2-4
{5}
40 км слаб. снег 10/9 300 м
[]
-3.6 -4.6 93 -8 -8 очень
холодно
1020.5 1009.9
СВ 2-4
{4}
35 км в посл. час переохл. осадки (гололёд) 9/9 300 м
[]
-3.5 -4.5 93 -8 -8 очень
холодно
1020.7 1010.1
СВ 2-3
{5}
30 км 10/6 600 м
[]
-3.4 -4.4 93 -8 -8 очень
холодно
1021.1 1010.5
СВ 2-3
{4}
30 км 10/1 600 м
[]
-3.3 -4.3 93 -8 -8 очень
холодно
1021.2 1010.6
СВ 2-4
{4}
35 км {ливн. осадки, снег} 10/10 1500 м
[]
-3.2 -4.2 93 -7 -7 холодно 1021.5 1011.0
СВ 2-4
{4}
50 км 9/1 1000 м
[]
-3.3 -4.2 93 -8 -8 очень
холодно
1021.8 1011.2
СВ 3-4
{5}
50 км 10/0 1500 м
[]
-3.3 -4.2 93 -9 -9 очень
холодно
1022.0 1011.4
СВ 2-5
{5}
50 км 10/10 600 м
[]
-3.1 -4.2 92 -7 -7 холодно 1023.0 1012.4
СВ 1-3
{4}
50 км 10/10 300 м
[]
-3.1 -4.2 92 -5 -5 холодно 1023.4 1012.8
СВ 2-4
{4}
50 км 10/10 300 м
[]
-3.1 -4.3 91 -7 -7 холодно 1023.6 1013.0
СВ 2-4
{5}
50 км 10/10 300 м
[]
-3.0 -4.3 91 -7 -7 холодно 1024.1 1013.5 -3.6 -3.0
СВ 2-4
{4}
50 км 10/10 300 м
[]
-3.0 -4.2 91 -7 -7 холодно 1024.9 1014.3
СВ 1-3
{4}
5000 м осадки 9/9 300 м
[]
-3.0 -3.7 95 -5 -5 холодно 1025.4 1014.8
СВ 2-3
{3}
2700 м сильн. снег {туман} 10/10 300 м
[]
-2.8 -3.5 95 -7 -7 холодно 1026.0 1015.4
СВ 1-2
{3}
19 км слаб. снег 10/10 300 м
[]
-2.6 -3.3 95 -5 -5 холодно 1026.3 1015.7
СВ 1-2
{3}
18 км слаб. снег 10/10 300 м
[]
-2.3 -3.2 94 -5 -5 холодно 1026.3 1015.7
С 1-1
{2}
2700 м слаб. снег {дождь} 10/10 300 м
[]
-2.3 -3.0 95 -5 -5 холодно 1027.2 1016.6
СВ 2-2
{3}
3400 м слаб. дождь со снегом 10/0 1500 м
[]
-2.4 -2.9 96 -7 -7 холодно 1027.2 1016.6
СВ 1-2
{3}
5000 м слаб. ледяной дождь 10/10 600 м
[]
-2.2 -2.7 96 -5 -5 холодно 1027.6 1017.0
СВ 1-2
{2}
2700 м слаб. снег {дождь} 10/10 100 м
[]
-2.1 -2.5 97 -5 -5 холодно 1027.8 1017.2
СВ 1-1
{2}
7000 м слаб. дождь со снегом 10/10 100 м
[]
-2.3 -2.6 98 -5 -5 холодно 1027.8 1017.2
ЮВ 1-2
{3}
2700 м в посл. час снег 10/10 <50 м
[]
-2.2 -2.3 99 -5 -5 холодно 1028.3 1017.7
ЮВ 1-1
{2}
2200 м в посл. час зёрна {дождь} 10/10 <50 м
[]
-1.9 -1.9 100 -4 -4 прохладно 1028.4 1017.8 -3.1 -1.9
ЮВ 1-2
{2}
1200 м в посл. час туман 10/10 <50 м
[]
-1.6 -1.6 100 -4 -4 прохладно 1028.6 1018.0
ЮВ 1-2
{2}
1400 м в посл. час туман 10/10 <50 м
[]
-1.2 -1.2 100 -4 -4 прохладно 1029.1 1018.5
ЮВ 2-4
{4}
4200 м слаб. ливневой дождь 10/10 <50 м
[]
-1.0 -1.0 100 -5 -5 холодно 1029.0 1018.5
ЮВ 2-3
{5}
5000 м дымка 10/10 50 м
[]
-0.3 -0.4 99 -4 -4 прохладно 1029.0 1018.5
ЮВ 2-3
{4}
2000 м дымка 10/0 <50 м
[]
-0.1 -0.1 100 -4 -4 прохладно 1029.1 1018.5
ЮВ 2-4
{4}
13 км {ливн. осадки, снег} 10/10 50 м
[]
+0.2 +0.2 100 -4 -4 прохладно 1028.8 1018.3
В 3-6
{6}
1200 м дымка ?/? +0.4 +0.4 100 -4 -4 прохладно 1028.6 1018.1
В 4-6
{6}
5000 м осадки 10/10 <50 м
[]
+0.6 +0.6 100 -5 -5 холодно 1028.4 1017.9
В 3-6
{7}
9000 м дымка {ливн. осадки} 10/10 50 м
[]
+0.8 +0.7 99 -4 -4 прохладно 1028.2 1017.7
В 4-6
{7}
6000 м дымка 10/10 100 м
[]
+0.9 +0.7 99 -5 -5 холодно 1028.1 1017.6
В 4-6
{6}
26 км 10/10 100 м
[]
+1.0 +0.7 98 -4 -4 прохладно 1027.8 1017.4
В 3-6
{6}
26 км {ливн. осадки, морось} 10/10 100 м
[]
+0.9 +0.6 98 -4 -4 прохладно 1027.6 1017.1 -1.9 +1.0
В 2-6
{7}
30 км 10/10 100 м
[]
+1.0 +0.5 96 -3 -3 прохладно 1027.7 1017.2
В 3-6
{7}
45 км 10/10 100 м
[]
+1.0 +0.4 96 -4 -4 прохладно 1027.5 1017.1
В 3-6
{6}
50 км 9/9 200 м
[]
+1.1 +0.3 94 -4 -4 прохладно 1027.6 1017.1
ЮВ 2-4
{5}
50 км 10/10 200 м
[]
+0.9 +0.3 96 -3 -3 прохладно 1028.0 1017.5
В 3-6
{6}
5000 м дымка 10/10 200 м
[]
+0.9 +0.3 96 -4 -4 прохладно 1027.8 1017.3
В 4-7
{8}
5000 м дымка 10/10 100 м
[]
+0.6 +0.1 96 -5 -5 холодно 1027.3 1016.8
В 4-7
{8}
19 км 10/10 100 м
[]
+0.6 +0.1 96 -5 -5 холодно 1026.7 1016.2
В 4-7
{8}
13 км 10/10 100 м
[]
+0.5 0.0 96 -5 -5 холодно 1026.5 1016.0
В 4-7
{7}
10 км 10/10 100 м
[]
+0.7 +0.2 96 -5 -5 холодно 1026.1 1015.6
В 4-6
{7}
7000 м слаб. дождь 10/10 100 м
[]
+0.7 +0.2 96 -5 -5 холодно 1026.0 1015.5
В 4-6
{7}
8000 м слаб. снег 10/10 200 м
[]
+0.7 +0.3 97 -5 -5 холодно 1025.9 1015.4
В 4-6
{7}
7000 м ливневой дождь {снег} 10/10 200 м
[]
+0.8 +0.3 96 -5 -5 холодно 1025.4 1014.9 +0.5 +1.1
В 4-6
{8}
45 км слаб. ливневой дождь 10/10 200 м
[]
+0.9 +0.5 97 -5 -5 холодно 1025.2 1014.7
В 4-6
{6}
3500 м осадки 10/10 200 м
[]
+1.1 +0.7 97 -4 -4 прохладно 1025.4 1015.0
ЮВ 3-5
{7}
15 км в посл. час снег {ливн. осадки, морось} 10/10 100 м
[]
+1.2 +0.9 98 -3 -3 прохладно 1025.5 1015.1
ЮВ 4-6
{7}
14 км в посл. час морось 10/10 200 м
[]
+1.1 +0.8 98 -4 -4 прохладно 1025.3 1014.9
В 3-5
{6}
12 км в посл. час морось 10/10 100 м
[]
+1.1 +0.8 98 -4 -4 прохладно 1025.5 1015.0
В 2-4
{6}
10 км ливневой дождь {морось} 10/10 50 м
[]
+1.2 +1.0 99 -2 -2 по сезону 1025.2 1014.8
ЮВ 3-5
{6}
3500 м дымка 10/10 50 м
[]
+1.3 +1.1 99 -3 -3 прохладно 1025.2 1014.7
В 3-5
{6}
5000 м дымка 10/10 50 м
[]
+1.5 +1.4 99 -3 -3 прохладно 1025.0 1014.5
В 4-6
{6}
3200 м дымка {ливн. осадки} 10/10 100 м
[]
+1.7 +1.5 99 -4 -4 прохладно 1024.8 1014.4
ЮВ 2-4
{5}
3100 м дымка 10/10 50 м
[]
+1.7 +1.6 99 -2 -2 по сезону 1024.5 1014.1
В 1-3
{3}
2400 м слаб. ливневой дождь 10/0 50 м
[]
+1.6 +1.5 99 -0 -0 по сезону 1023.9 1013.5
В 2-4
{4}
6000 м ливневой дождь 10/10 <50 м
[]
+1.8 +1.7 99 -2 -2 по сезону 1023.5 1013.1 +0.7 +1.8
ЮВ 2-3
{4}
29 км в посл. час морось 10/10 100 м
[]
+1.9 +1.8 99 -2 -2 по сезону 1023.6 1013.2
ЮВ 2-5
{5}
4600 м дымка 10/10 100 м
[]
+2.5 +2.3 99 -1 -1 по сезону 1023.6 1013.2
ЮВ 3-5
{6}
7000 м дымка {ливн. осадки} 10/10 100 м
[]
+2.5 +2.2 98 -2 -2 по сезону 1023.3 1012.9
ЮВ 3-6
{7}
6000 м слаб. дождь 9/9 200 м
[]
+2.5 +2.3 99 -2 -2 по сезону 1023.2 1012.8
ЮВ 3-5
{5}
8000 м слаб. дождь 10/10 300 м
[]
+2.7 +2.2 97 -2 -2 по сезону 1023.2 1012.8
ЮВ 2-4
{5}
12 км слаб. дождь 10/10 200 м
[]
+2.8 +2.3 97 -1 -1 по сезону 1023.2 1012.8
ЮВ 3-6
{6}
6000 м морось 10/10 100 м
[]
+2.8 +2.5 98 -2 -2 по сезону 1023.2 1012.9
Ю 3-5
{7}
7000 м слаб. морось 10/10 100 м
[]
+3.2 +2.9 98 -1 -1 по сезону 1023.6 1013.2
ЮЗ 4-8
{8}
14 км в посл. час снег {ливн. осадки, дождь} 10/10 50 м
[]
+3.2 +2.9 98 -2 -2 по сезону 1024.2 1013.8
ЮЗ 4-6
{8}
3000 м в посл. час морось 10/0 50 м
[]
+2.9 +2.9 100 -2 -2 по сезону 1024.7 1014.4
ЮЗ 4-7
{8}
19 км 9/9 50 м
[]
+2.8 +2.6 99 -2 -2 по сезону 1025.6 1015.2
ЮЗ 4-6
{6}
27 км {ливн. осадки, дождь} 10/10 100 м
[]
+2.6 +2.3 98 -2 -2 по сезону 1026.0 1015.5 +1.8 +3.5
ЮЗ 4-7
{8}
11 км 10/10 50 м
[]
+2.5 +2.3 99 -3 -3 прохладно 1026.5 1016.1
ЮЗ 4-7
{7}
7000 м дымка 10/0 50 м
[]
+2.5 +2.5 100 -3 -3 прохладно 1027.1 1016.6
ЮЗ 4-6
{7}
20 км 9/9 50 м
[]
+2.4 +2.2 99 -3 -3 прохладно 1027.8 1017.3
ЮЗ 3-5
{6}
28 км 9/9 100 м
[]
+2.3 +1.9 97 -2 -2 по сезону 1028.4 1018.0
ЮЗ 3-5
{5}
35 км 9/9 100 м
[]
+2.2 +1.6 96 -2 -2 по сезону 1028.9 1018.5
Ю 2-4
{7}
50 км 6/6 300 м
[]
+1.6 +1.0 96 -2 -2 по сезону 1029.1 1018.7
ЮЗ 2-3
{5}
50 км 9/9 100 м
[]
+1.7 +1.1 96 -2 -2 по сезону 1029.5 1019.0
ЮЗ 4-7
{7}
50 км 9/9 200 м
[]
+1.5 +0.7 94 -4 -4 прохладно 1029.6 1019.1
ЮЗ 2-3
{6}
50 км 9/9 200 м
[]
+1.4 +0.8 96 -2 -2 по сезону 1029.8 1019.3
ЮЗ 4-5
{5}
35 км 9/9 50 м
[]
+1.3 +0.8 96 -4 -4 прохладно 1030.0 1019.5
ЮЗ 3-5
{7}
6000 м дымка 9/0 50 м
[]
+1.0 +0.9 99 -4 -4 прохладно 1030.3 1019.8
ЮЗ 4-7
{7}
26 км 9/9 50 м
[]
+1.6 +1.3 98 -4 -4 прохладно 1030.6 1020.1 +0.9 +2.7
ЮЗ 5-8
{8}
19 км 9/9 100 м
[]
+1.7 +1.0 95 -4 -4 прохладно 1030.6 1020.1
ЮЗ 5-8
{10}
30 км 9/9 100 м
[]
+1.6 +0.9 95 -4 -4 прохладно 1030.9 1020.4
ЮЗ 5-8
{10}
30 км 9/9 100 м
[]
+1.5 +0.8 95 -4 -4 прохладно 1031.0 1020.5
ЮЗ 4-6
{9}
30 км 9/9 100 м
[]
+1.3 +0.8 96 -4 -4 прохладно 1031.0 1020.5
ЮЗ 4-7
{8}
19 км 9/9 100 м
[]
+1.3 +0.7 96 -4 -4 прохладно 1031.2 1020.7
ЮЗ 4-7
{9}
23 км 9/9 100 м
[]
+1.2 +0.6 96 -4 -4 прохладно 1030.9 1020.4
ЮЗ 4-7
{8}
7000 м дымка 9/9 100 м
[]
+0.9 +0.6 98 -5 -5 холодно 1030.7 1020.2
ЮЗ 4-8
{8}
12 км 9/9 100 м
[]
+0.8 +0.4 97 -5 -5 холодно 1030.4 1019.9
ЮЗ 4-7
{8}
4800 м дымка 9/9 50 м
[]
+1.2 +1.0 99 -4 -4 прохладно 1030.1 1019.6
ЮЗ 4-7
{9}
6000 м дымка 9/9 100 м
[]
+1.7 +1.4 98 -4 -4 прохладно 1029.5 1019.1
ЮЗ 5-9
{9}
14 км 9/0 50 м
[]
+1.9 +1.7 99 -4 -4 прохладно 1029.5 1019.0
ЮЗ 4-7
{8}
1900 м дымка 9/0 50 м
[]
+2.0 +2.0 100 -3 -3 прохладно 1029.5 1019.0 +0.7 +2.0
ЮЗ 5-7
{8}
7000 м дымка 9/9 50 м
[]
+2.1 +2.0 99 -4 -4 прохладно 1029.2 1018.8
ЮЗ 5-7
{8}
3300 м дымка 9/0 50 м
[]
+1.9 +1.9 100 -4 -4 прохладно 1029.3 1018.8
ЮЗ 4-7
{7}
11 км 9/9 <50 м
[]
+2.0 +1.9 99 -3 -3 прохладно 1029.3 1018.9
ЮЗ 5-7
{8}
21 км 9/9 50 м
[]
+2.2 +1.9 98 -4 -4 прохладно 1029.2 1018.7
ЮЗ 4-6
{7}
3400 м дымка 9/0 <50 м
[]
+2.0 +2.0 100 -3 -3 прохладно 1029.2 1018.8
Местоположение метеостанции Рованиеми (Финляндия): широта 66.50 долгота 25.71 высота над уровнем моря 85 м.
В архиве по умолчанию представлена погода в Рованиеми за последнюю неделю. Архивные данные за месяц целиком и за предыдущие месяцы, начиная с января 2011 года, Вы можете получить, выбрав интересующий диапазон дат из раскрывающегося списка и нажав кнопку "Найти!".
*Определитесь, кто Вы:
Внимание! Время в таблицах - всемирное. Для получения местного времени необходимо прибавить поправку, которая равна 1 ч.
Смотрите также архив погоды в соседних городах и на ближайших метеорологических станциях:
Партнеры нашего сайта:      
Пояснения к столбцам:
  • Ветер - указаны скорость ветра в м/с - средняя за 10 мин, порывы в срок и между сроками (в фигурных скобках) и направление, откуда дует ветер: С - северный,
  • СВ - северо-восточный, В - восточный, ЮВ - юго-восточный, Ю - южный, ЮЗ - юго-западный, З - западный, СЗ - северо-западный.
  • Видимость - горизонтальная дальность видимости в метрах или километрах. При видимости от 1 до 10 км при отсутствии осадков обычно наблюдается дымка, при ухудшении видимости до 1 км и менее - туман. В сухую погоду видимость может ухудшаться дымом, пылью или мглою.
  • Явления - указаны атмосферные явления, наблюдавшиеся в срок или в последний час перед сроком; фигурными скобками обозначены явления, наблюдавшиеся между сроками (за 1-3 часа до срока); квадратными скобками обозначены град или гололедные отложения с указанием их диаметра в мм.
  • Облачность - указаны через наклонную черту общая и нижняя облачность в баллах и высота нижней границы облаков в метрах; квадратными скобками обозначены формы облаков: Ci - перистые, Cs - перисто-слоистые, Cc - перисто-кучевые, Ac - высококучевые, As - высокослоистые, Sc - слоисто-кучевые, Ns - слоисто-дождевые, Cu - кучевые, Cb - кучево-дождевые. Подробнее классификацию облаков см. в Атласе облаков (PDF).
  • T - Температура воздуха - температура, измеренная на высоте 2 м над землей.
  • Td - Температура точки росы - температура, при понижении до которой содержащийся в воздухе водяной пар достигнет насыщения.
  • f - Относительная влажность воздуха - влажноcть воздуха, измеренная на высоте 2 м над землей.
  • Te - Эффективная температура - температура, которую ощущает одетый по сезону человек в тени. Характеристика душности погоды. При расчете учитывается влияние влажности воздуха и скорости ветра на теплоощущения человека.
  • Tes - Эффективная температура на солнце - температура, которую ощущает человек, с поправкой на солнечный нагрев. Характеристика знойности погоды. Зависит от высоты солнца над горизонтом, облачности и скорости ветра. Ночью, в пасмурную погоду, а также при ветре 12 м/с и более поправка равна нулю.
  • P - Атмосферное давление - приведенное к уровню моря атмосферное давление.
  • Po - Атмосферное давление - измеренное на уровне метеостанции атмосферное давление.
  • Tmin - Минимальная температура - минимум температуры воздуха на высоте 2 м над землей.
  • Tmax - Максимальная температура - максимум температуры воздуха на высоте 2 м над землей.
  • R - Количество осадков - Количество выпавших осадков за период времени, мм. При наведении курсора мыши на число - период времени, за который выпало указанное количество осадков.
  • R24 - Количество осадков - Количество выпавших осадков за 24 часа, мм.
  • S - Снежный покров - Высота снежного покрова, см. При наведении курсора мыши на число - состояние снежного покрова и степень покрытия местности в баллах.